Terminal Aerodrome Forecast
Issued by NWS Bismarck, ND

Home | Current Version | Previous Version | Graphics & Text | Print | Product List | Glossary On
Versions: 1 2 3 4 5 6 7 8 9 10 11 12 13 14 15 16 17 18 19 20 21
000
FTUS43 KBIS 290500
TAFISN
TAF
KISN 290536Z 2906/3006 07007KT P6SM SCT009 BKN015 OVC025
      TEMPO 2906/2909 BKN009 OVC015
     FM290900 07006KT 3SM BR BKN007 OVC015
     FM291600 12010KT P6SM SCT007 BKN015 OVC030
     FM292100 14012KT P6SM -SHRA BKN012 OVC035
     FM300300 15010KT 4SM -SHRA BR BKN009 OVC015=

USA.gov is the U.S. government's official web portal to all federal, state and local government web resources and services.